[[{"header":{"parameterUnit":"m.s-1","parameterCategory":1,"la1":30.2991,"la2":30.254,"lo1":-89.0895,"lo2":-89.0444,"dy":0.0017,"dx":0.0017,"nx":28,"ny":28,"refTime":"2025-01-11T03:00:00:Z","depth":0,"parameterNumber":2,"parameterNumberName":"U-component_of_WINDS"},"data":[0,0,0,0,0,0,0,0,0,0,0,0,0,0,0,0,0,0,0,0,0,0,0,0,0,0,0,0,0,0,0,0,0,0,0,0,0,0,0,0,0,0,0,0,0,0,0,0,0,0,0,0,0,0,0,0,0,0,4.6347,4.6347,0,4.6404,4.6404,4.6405,4.6348,4.6346,4.6344,4.6342,4.6398,4.6402,4.6405,0,0,0,0,0,0,0,0,0,0,0,0,0,4.6187,4.6191,4.6346,4.6347,4.6348,4.6404,4.6404,4.6405,4.6349,4.6346,4.6343,4.6341,4.6397,4.6402,4.6406,0,0,0,0,0,0,0,0,0,0,0,0,0,4.6252,4.6192,4.6346,4.6326,4.6325,4.6404,4.6405,4.6405,4.6349,4.6346,4.6343,4.6339,4.6396,4.6401,4.6406,4.6507,0,0,4.6423,4.6425,0,0,0,0,0,0,0,0,4.6248,4.6258,4.6329,4.6328,4.6327,4.6366,4.6369,4.6439,4.635,4.634,4.6342,4.6338,4.639,4.6396,4.6414,4.6509,4.6512,4.6423,4.6427,4.6429,4.643,0,0,0,0,0,0,0,4.6244,4.6255,4.6369,4.633,4.6329,4.6314,4.632,4.6382,4.6383,4.6341,4.6337,4.6344,4.6389,4.6409,4.6415,4.6512,4.6423,4.6428,4.6431,4.6433,4.6694,4.6698,0,0,0,0,0,0,4.6242,4.6251,4.6367,4.6371,4.6278,4.632,4.6326,4.6356,4.6382,4.6383,4.6347,4.6342,4.6401,4.6408,4.6416,4.6536,4.6429,4.6434,4.6437,4.669,4.6695,4.6699,0,0,0,0,0,0,4.6238,4.6252,4.6365,4.631,4.6323,4.6326,4.6361,4.6359,4.6379,4.6387,4.6387,4.6367,4.6399,4.6409,4.6485,4.6537,4.6436,4.6441,4.6686,4.6692,4.6697,4.6775,0,0,0,0,0,0,4.6234,4.6252,4.629,4.6311,4.6327,4.6433,4.6364,4.6363,4.6389,4.6382,4.6406,4.6407,4.6397,4.6477,4.649,4.6543,4.6445,4.6681,4.6689,4.6695,4.6768,4.6783,4.6795,0,0,0,0,0,4.6229,4.6309,4.6292,4.6306,4.6374,4.6436,4.6445,4.6432,4.6393,4.6431,4.6437,4.6406,4.653,4.6486,4.65,4.6554,4.6678,4.6687,4.6695,4.6762,4.678,4.6795,0,0,0,0,0,0,4.6292,4.6311,4.6293,4.6383,4.6408,4.6426,4.6474,4.6452,4.6488,4.648,4.6463,4.6469,4.655,4.6559,4.651,4.6653,4.6597,4.6609,4.6644,4.6661,4.6674,4.667,4.645,0,0,0,0,0,4.6317,4.6366,4.638,4.6458,4.6472,4.6471,4.6497,4.6486,4.6511,4.6522,4.6533,4.6558,4.6603,4.6632,4.6674,4.677,4.6774,4.6814,4.6828,4.6839,4.6849,4.6901,4.6919,4.6726,4.6726,4.6726,0,0,4.6368,4.6385,4.6416,4.6471,4.6489,4.654,4.648,4.6536,4.6574,4.653,4.6603,4.6612,4.6639,4.6726,4.6765,4.6737,4.6904,4.685,4.6859,4.6863,4.6912,4.693,4.6946,4.6732,4.6731,4.673,0,0,4.6487,4.6505,4.6572,4.6592,4.6621,4.6621,4.6637,4.6659,4.6664,4.6737,4.6705,4.675,4.6827,4.6848,4.6869,4.6998,4.6971,4.7012,4.7083,4.7134,4.7149,4.7163,4.7209,4.7226,4.7022,4.7022,4.7022,0,4.6546,4.6622,4.6609,4.6668,4.6693,4.6657,4.6725,4.6745,4.6786,4.6804,4.6773,4.687,4.6886,4.6977,4.7009,4.7027,4.7045,4.7009,4.7148,4.7162,4.7174,4.7218,4.7235,4.7027,4.7026,4.7026,4.7026,0,4.6694,4.6748,4.6798,4.684,4.6871,4.6934,4.6931,4.6963,4.695,4.6953,4.7028,4.7046,4.7091,4.7112,4.7099,4.7202,4.7184,4.7151,4.7094,4.7198,4.7238,4.7255,4.7034,4.7032,4.7031,4.703,0,0,4.6853,4.6889,4.6907,4.6926,4.6957,4.6998,4.706,4.7105,4.7133,4.7163,4.7215,4.7282,4.7252,4.7276,4.7265,4.731,4.7411,4.7271,4.7271,4.7296,4.7527,4.7551,4.7571,4.7394,4.7397,4.74,4.7525,0,4.6973,4.7082,4.7072,4.7174,4.7224,4.7191,4.7245,4.727,4.7274,4.7317,4.7321,4.7369,4.7326,4.734,4.7384,4.739,4.7457,4.7381,4.7442,4.7444,4.7435,4.7592,4.7618,4.7734,4.754,4.7543,4.7545,0,4.7127,4.7164,4.7272,4.7296,4.7316,4.7365,4.7406,4.7447,4.7475,4.7475,4.7503,4.7485,4.7547,4.749,4.7576,4.7524,4.7548,4.7556,4.756,4.7564,4.75,4.7601,4.7771,4.7789,4.757,4.7568,4.7566,0,4.7233,4.7309,4.7384,4.7401,4.7431,4.7466,4.748,4.7505,4.7533,4.7569,4.7587,4.7629,4.7652,4.7686,4.7679,4.7638,4.7767,4.7709,4.7769,4.7769,4.7797,4.7795,4.7973,4.7814,4.7813,4.7813,4.7813,0,4.7368,4.7435,4.7432,4.7478,4.7552,4.7541,4.7615,4.7624,4.7647,4.7694,4.7668,4.7713,4.7702,4.7746,4.7742,4.7814,4.7825,4.7826,4.7824,4.7829,4.7828,4.7844,4.7835,4.7818,4.7817,4.7816,4.7815,0,4.7498,4.7498,4.7577,4.76,4.7607,4.7661,4.768,4.7724,4.7727,4.7787,4.78,4.7805,4.7856,4.7854,4.7911,4.7908,4.7997,4.7986,4.7988,4.7985,4.8045,4.8039,4.8239,4.8265,4.8089,4.8091,4.8092,0,4.7583,4.7634,4.7663,4.7693,4.771,4.7759,4.7787,4.7779,4.781,4.7846,4.7885,4.7934,4.7972,4.8056,4.8064,4.8108,4.8097,4.8165,4.8104,4.8107,4.8098,4.8095,4.81,4.8176,4.8178,4.818,4.8181,0,4.7735,4.7734,4.7776,4.782,4.7856,4.789,4.792,4.7946,4.7941,4.7977,4.803,4.806,4.812,4.8168,4.8211,4.8225,4.8203,4.82,4.8216,4.8221,4.822,4.8221,4.802,4.8195,4.8194,4.8193,4.8192,4.8192,4.7846,4.789,4.7917,4.7966,4.7989,4.8019,4.8061,4.807,4.8114,4.8162,4.8154,4.8213,4.824,4.8295,4.8314,4.8359,4.8335,4.8359,4.8364,4.837,4.8377,4.8214,4.8367,4.8367,4.8366,4.8366,4.8366,0,4.7996,4.8013,4.8058,4.8103,4.8142,4.8118,4.8151,4.8185,4.8238,4.8265,4.8304,4.8365,4.8413,4.8426,4.8472,4.8506,4.8497,4.8518,4.8515,4.8519,4.8396,4.8377,4.8525,4.8525,4.8525,4.8525,4.8525,4.8525,4.8079,4.8153,4.8155,4.824,4.8255,4.8313,4.8334,4.8362,4.8384,4.8453,4.8493,4.8502,4.8524,4.8571,4.8614,4.8617,4.8635,4.866,4.8659,4.8543,4.8527,4.8512,4.8495,4.8665,4.8665,4.8778,4.8779,4.878]},{"header":{"parameterUnit":"m.s-1","parameterCategory":1,"la1":30.2991,"la2":30.254,"lo1":-89.0895,"lo2":-89.0444,"dy":0.0017,"dx":0.0017,"nx":28,"ny":28,"refTime":"2025-01-11T03:00:00:Z","depth":0,"parameterNumber":3,"parameterNumberName":"V-component_of_WINDS"},"data":[0,0,0,0,0,0,0,0,0,0,0,0,0,0,0,0,0,0,0,0,0,0,0,0,0,0,0,0,0,0,0,0,0,0,0,0,0,0,0,0,0,0,0,0,0,0,0,0,0,0,0,0,0,0,0,0,0,0,-6.2571,-6.2573,0,-6.2748,-6.275,-6.2752,-6.2731,-6.2728,-6.2725,-6.2723,-6.29,-6.2907,-6.2914,0,0,0,0,0,0,0,0,0,0,0,0,0,-6.2212,-6.2219,-6.2571,-6.2573,-6.2575,-6.2747,-6.275,-6.2752,-6.2731,-6.2728,-6.2725,-6.2721,-6.2898,-6.2906,-6.2915,0,0,0,0,0,0,0,0,0,0,0,0,0,-6.2376,-6.2221,-6.257,-6.2586,-6.2589,-6.2747,-6.275,-6.2753,-6.2732,-6.2728,-6.2724,-6.272,-6.2895,-6.2905,-6.2916,-6.3069,0,0,-6.295,-6.2955,0,0,0,0,0,0,0,0,-6.2367,-6.2389,-6.2581,-6.2585,-6.2589,-6.2713,-6.2688,-6.2859,-6.2733,-6.2678,-6.2723,-6.2718,-6.2841,-6.2856,-6.2899,-6.3078,-6.3085,-6.2951,-6.2958,-6.2962,-6.2966,0,0,0,0,0,0,0,-6.2356,-6.2382,-6.2641,-6.2584,-6.2589,-6.2583,-6.2601,-6.2721,-6.2781,-6.2682,-6.2681,-6.2702,-6.2842,-6.2888,-6.2903,-6.3088,-6.2951,-6.2961,-6.2967,-6.2972,-6.3402,-6.3406,0,0,0,0,0,0,-6.2341,-6.2372,-6.2635,-6.2646,-6.2465,-6.2593,-6.2613,-6.2677,-6.2779,-6.2791,-6.2706,-6.2701,-6.2871,-6.289,-6.2909,-6.3095,-6.2962,-6.2973,-6.2979,-6.3397,-6.3403,-6.3408,0,0,0,0,0,0,-6.2333,-6.2364,-6.2628,-6.2509,-6.2542,-6.2603,-6.2675,-6.2683,-6.2729,-6.2798,-6.2808,-6.2742,-6.2869,-6.2893,-6.303,-6.3101,-6.2978,-6.2988,-6.3391,-6.3399,-6.3405,-6.3468,0,0,0,0,0,0,-6.2323,-6.2362,-6.2421,-6.2511,-6.2549,-6.2747,-6.268,-6.269,-6.2748,-6.2743,-6.2834,-6.2845,-6.2867,-6.3014,-6.3041,-6.3114,-6.2996,-6.3385,-6.3395,-6.3403,-6.346,-6.3477,-6.3491,0,0,0,0,0,-6.231,-6.2431,-6.2424,-6.2456,-6.2624,-6.2751,-6.2773,-6.2797,-6.2754,-6.2814,-6.2858,-6.2842,-6.3089,-6.3028,-6.3058,-6.3135,-6.3381,-6.3392,-6.3402,-6.3453,-6.3473,-6.349,0,0,0,0,0,0,-6.2347,-6.2443,-6.2437,-6.259,-6.2663,-6.2748,-6.2824,-6.2818,-6.2903,-6.2895,-6.292,-6.2941,-6.3079,-6.3121,-6.3051,-6.3289,-6.3229,-6.3246,-6.3257,-6.3277,-6.3292,-6.3278,-6.3006,0,0,0,0,0,-6.2373,-6.2469,-6.2548,-6.2675,-6.2712,-6.2762,-6.2818,-6.2831,-6.2907,-6.2937,-6.2991,-6.3065,-6.3159,-6.322,-6.331,-6.3466,-6.3485,-6.3534,-6.355,-6.3562,-6.3576,-6.3662,-6.3685,-6.3444,-6.3443,-6.3443,0,0,-6.2428,-6.2492,-6.2551,-6.2684,-6.2742,-6.284,-6.2788,-6.2894,-6.2967,-6.2953,-6.3086,-6.3128,-6.3211,-6.3359,-6.3426,-6.3398,-6.3648,-6.3576,-6.3585,-6.3593,-6.3676,-6.3698,-6.3719,-6.3451,-6.345,-6.3448,0,0,-6.2577,-6.2636,-6.2749,-6.2808,-6.2897,-6.293,-6.2957,-6.3043,-6.3072,-6.3206,-6.3197,-6.3284,-6.3445,-6.3505,-6.3557,-6.3731,-6.3719,-6.3759,-6.3839,-6.3923,-6.3942,-6.3959,-6.402,-6.4042,-6.3774,-6.3774,-6.3774,0,-6.2633,-6.2782,-6.2807,-6.2915,-6.2974,-6.2967,-6.3082,-6.3138,-6.3251,-6.3292,-6.3259,-6.3462,-6.3518,-6.3679,-6.3721,-6.3763,-6.3795,-6.3749,-6.3937,-6.3954,-6.397,-6.403,-6.4053,-6.3778,-6.3778,-6.3777,-6.3777,0,-6.2847,-6.295,-6.3031,-6.3142,-6.321,-6.332,-6.3361,-6.3427,-6.3434,-6.347,-6.3606,-6.3673,-6.3777,-6.3816,-6.3824,-6.3979,-6.3959,-6.3931,-6.3871,-6.3997,-6.4053,-6.4076,-6.3784,-6.3783,-6.3782,-6.3781,0,0,-6.3023,-6.3148,-6.3178,-6.3228,-6.3326,-6.3406,-6.3516,-6.362,-6.3675,-6.3754,-6.3846,-6.3984,-6.3959,-6.4018,-6.4032,-6.4105,-6.4239,-6.4069,-6.4071,-6.4098,-6.4414,-6.4433,-6.4459,-6.4232,-6.4236,-6.424,-6.4407,0,-6.3183,-6.3379,-6.3405,-6.3578,-6.3674,-6.3669,-6.3765,-6.3835,-6.3872,-6.3958,-6.3997,-6.4094,-6.4055,-6.409,-6.4163,-6.4207,-6.4302,-6.4195,-6.4317,-6.4321,-6.4296,-6.4489,-6.451,-6.4664,-6.4429,-6.4432,-6.4435,0,-6.3394,-6.348,-6.3663,-6.3749,-6.379,-6.3876,-6.3973,-6.4055,-6.4135,-6.4156,-6.4223,-6.4228,-6.4341,-6.4277,-6.4432,-6.4359,-6.4411,-6.444,-6.4446,-6.4458,-6.4385,-6.4505,-6.4714,-6.4737,-6.447,-6.4467,-6.4465,0,-6.3504,-6.3666,-6.3797,-6.384,-6.3944,-6.4004,-6.405,-6.4125,-6.4186,-6.427,-6.4309,-6.4405,-6.4458,-6.4532,-6.4562,-6.4513,-6.4717,-6.4655,-6.4737,-6.4736,-6.4779,-6.4776,-6.4999,-6.4813,-6.4813,-6.4812,-6.4812,0,-6.3679,-6.3791,-6.3848,-6.3928,-6.4054,-6.4083,-6.4206,-6.4249,-6.4316,-6.4404,-6.4406,-6.4488,-6.4524,-6.4612,-6.4636,-6.4761,-6.4785,-6.4805,-6.481,-6.4805,-6.4802,-6.4838,-6.4828,-6.4819,-6.4817,-6.4816,-6.4815,0,-6.3823,-6.3866,-6.4008,-6.4095,-6.4119,-6.4208,-6.4281,-6.4359,-6.4395,-6.4506,-6.4534,-6.459,-6.4694,-6.4732,-6.4858,-6.4874,-6.5019,-6.5016,-6.4993,-6.4994,-6.5074,-6.5065,-6.5327,-6.5363,-6.5154,-6.5156,-6.5157,0,-6.3932,-6.4018,-6.4115,-6.4174,-6.4223,-6.4319,-6.4381,-6.4413,-6.4477,-6.4575,-6.464,-6.4744,-6.4828,-6.4994,-6.5045,-6.5141,-6.514,-6.5225,-6.5154,-6.5146,-6.5141,-6.5135,-6.5144,-6.5237,-6.524,-6.5241,-6.5243,0,-6.412,-6.4137,-6.4227,-6.4325,-6.44,-6.4478,-6.4554,-6.4603,-6.4646,-6.4719,-6.4825,-6.4891,-6.502,-6.5122,-6.5221,-6.5267,-6.5262,-6.5265,-6.5289,-6.5284,-6.5267,-6.5277,-6.5028,-6.5259,-6.5257,-6.5256,-6.5255,-6.5254,-6.4249,-6.4326,-6.4406,-6.4507,-6.4568,-6.4639,-6.4717,-6.4763,-6.4853,-6.4961,-6.4974,-6.5089,-6.5166,-6.5299,-6.5349,-6.5439,-6.5415,-6.545,-6.5459,-6.5467,-6.5473,-6.5254,-6.5457,-6.5456,-6.5456,-6.5456,-6.5455,0,-6.4437,-6.4489,-6.4581,-6.4688,-6.4768,-6.4758,-6.4842,-6.4908,-6.501,-6.5083,-6.5166,-6.5289,-6.5388,-6.5448,-6.5548,-6.5608,-6.5609,-6.5633,-6.5629,-6.5639,-6.5488,-6.5457,-6.5631,-6.5631,-6.5631,-6.5631,-6.5631,-6.5631,-6.4544,-6.4674,-6.47,-6.486,-6.4911,-6.5024,-6.5073,-6.5138,-6.5197,-6.5334,-6.5418,-6.5457,-6.5525,-6.5629,-6.572,-6.5735,-6.5771,-6.5798,-6.5811,-6.5668,-6.565,-6.5633,-6.5604,-6.5806,-6.5806,-6.5955,-6.5957,-6.5958]}]]